Simultaneous Nadir Overpasses (SNOs) Predictions

Prediction of SNOs between AQUA and NOAA-19 Satellite Orbit:

Table of predicted SNOs for the next 14.0 days since TLE Epoch: 10/11/2013
Index Date (AQUA) Time (AQUA) Lat,Lon (AQUA) SZA (AQUA ) Date (NOAA-19) Time (NOAA-19) Lat,Lon (NOAA-19) SZA (NOAA-19 ) Distance(km) Time Diff (sec)
1 10/13/2013 10:32:27 -67.90,-154.93 104.16 10/13/2013 10:31:22 -67.91,-154.97 104.17 2.23 65
2 10/13/2013 11:20:23 62.66, 17.67 70.98 10/13/2013 11:20:52 62.66, 17.69 70.99 1.56 29
3 10/15/2013 15:16:38 -67.69, 134.25 103.54 10/15/2013 15:15:31 -67.69, 134.26 103.55 0.58 67
4 10/15/2013 16:04:42 62.91, -53.59 72.03 10/15/2013 16:05:09 62.91, -53.55 72.04 2.04 27
5 10/17/2013 20:00:58 -68.01, 62.83 102.43 10/17/2013 19:59:50 -68.01, 62.82 102.44 0.21 68
6 10/17/2013 20:49:13 63.87,-125.43 73.72 10/17/2013 20:49:39 63.88,-125.46 73.74 1.23 26
7 10/20/2013 00:45:14 -68.12, -8.36 101.53 10/20/2013 00:44:05 -68.11, -8.35 101.54 0.29 69
8 10/20/2013 01:33:23 63.64, 163.70 74.31 10/20/2013 01:33:47 63.64, 163.73 74.32 1.53 24
9 10/22/2013 05:29:26 -68.02, -79.31 100.84 10/22/2013 05:28:16 -68.01, -79.26 100.85 2.03 70
10 10/22/2013 06:17:45 64.12, 92.24 75.54 10/22/2013 06:18:08 64.12, 92.25 75.55 0.57 23
11 10/24/2013 10:13:47 -68.45,-150.87 99.66 10/24/2013 10:12:37 -68.45,-150.87 99.67 0.13 70




NCC Satellite Simultaneous Nadir Overpasses (SNOs) Prediction Service
